Location: Newark
(48.3453°N, 0.5589°E)
Time: 12:42:10
(UTC+00:00)

A-11 Canister half - Pass Details

Date: 09 December 2019
Orbit: 1516 x 1683 km, 47.2° (Epoch: 19 January)

Event Time Altitude Azimuth Distance (km) Brightness Sun altitude
Rises 18:40:40 0° 290° (WNW) 4,890 12.6 -25.1°
Reaches altitude 10° 18:44:02 10° 284° (WNW) 3,918 12.0 -25.6°
Maximum altitude 18:53:03 39° 220° (SW) 2,334 10.2 -27.1°
Drops below altitude 10° 19:02:08 10° 156° (SSE) 3,935 10.9 -28.6°
Enters shadow 19:04:00 - 152° (SSE) 4,461 11.2 -29.0°
Sets 19:05:33 0° 149° (SSE) 4,913 - -29.2°
